SIA31C WSSS-YSSY

Flight info

Callsign SIA31C
Flight time N/A
Altitude 35000
Route IDBUD1A IDBUD T24 SURGA M635 BLI/N0483F370 M635 ATMAP A576 POLEV/N0469F390 A576 APOMA Y52 VELGI Y105 TARAL Y59 RIVET
Aircraft A388/J-SADE2E3FGHIJ3J4J5M1RWXY/LB1D1

Departure

Time N/A
Airport Singapore Changi Airport (WSSS)

Arrival

Time 2026-05-05 02:29
Airport Sydney Kingsford Smith International Airport (YSSY)
Time Latitude Longitude Altitude Speed Heading
2026-05-05 01:56 -34.46316 150.02066 35160 ft 438 kts 249°
2026-05-05 01:56 -34.49196 149.95583 35146 ft 430 kts 248°
2026-05-05 01:57 -34.50578 149.92437 35035 ft 414 kts 252°
2026-05-05 01:57 -34.51489 149.89233 34913 ft 392 kts 263°
2026-05-05 01:57 -34.51810 149.86056 34729 ft 369 kts 274°
2026-05-05 01:57 -34.51620 149.83051 34669 ft 348 kts 283°
2026-05-05 01:58 -34.51022 149.80262 34500 ft 338 kts 291°
2026-05-05 01:58 -34.50046 149.77699 34265 ft 333 kts 300°
2026-05-05 01:58 -34.48720 149.75389 34016 ft 336 kts 308°
2026-05-05 01:58 -34.47069 149.73378 33751 ft 340 kts 316°
2026-05-05 01:59 -34.45122 149.71727 33478 ft 344 kts 325°
2026-05-05 01:59 -34.42930 149.70508 33227 ft 350 kts 334°
2026-05-05 01:59 -34.40547 149.69782 32965 ft 358 kts 344°
2026-05-05 01:59 -34.38032 149.69602 32711 ft 367 kts 354°
2026-05-05 02:00 -34.35494 149.70011 32453 ft 378 kts
2026-05-05 02:00 -34.32974 149.71054 32202 ft 390 kts 16°
2026-05-05 02:00 -34.30611 149.72742 31942 ft 402 kts 28°
2026-05-05 02:00 -34.28528 149.75061 31702 ft 413 kts 41°
2026-05-05 02:01 -34.26863 149.77941 31452 ft 424 kts 55°
2026-05-05 02:01 -34.25496 149.81090 31217 ft 423 kts 55°
2026-05-05 02:01 -34.24116 149.84219 30957 ft 421 kts 55°
2026-05-05 02:01 -34.22730 149.87322 30696 ft 419 kts 54°
2026-05-05 02:02 -34.21810 149.89373 30549 ft 418 kts 54°
2026-05-05 02:02 -34.20405 149.92501 30307 ft 419 kts 54°
2026-05-05 02:02 -34.19035 149.95553 30023 ft 418 kts 55°
2026-05-05 02:02 -34.17886 149.98800 29738 ft 424 kts 68°
2026-05-05 02:03 -34.17327 150.02360 29463 ft 429 kts 83°
2026-05-05 02:03 -34.17444 150.05958 29176 ft 431 kts 98°
2026-05-05 02:03 -34.18216 150.09396 28907 ft 430 kts 112°
2026-05-05 02:03 -34.19608 150.12565 28642 ft 425 kts 127°
2026-05-05 02:04 -34.21514 150.15245 28378 ft 417 kts 142°
2026-05-05 02:04 -34.23803 150.17321 28091 ft 407 kts 155°
2026-05-05 02:04 -34.26338 150.18732 27835 ft 397 kts 168°
2026-05-05 02:04 -34.28992 150.19475 27587 ft 387 kts 180°
2026-05-05 02:05 -34.31629 150.19558 27229 ft 373 kts 194°
2026-05-05 02:05 -34.34134 150.19020 26989 ft 358 kts 204°
2026-05-05 02:05 -34.36422 150.17966 26806 ft 348 kts 214°
2026-05-05 02:05 -34.38472 150.16468 26585 ft 341 kts 223°
2026-05-05 02:06 -34.40228 150.14598 26332 ft 332 kts 233°
2026-05-05 02:06 -34.41650 150.12445 26096 ft 324 kts 242°
2026-05-05 02:06 -34.42754 150.10097 25856 ft 320 kts 247°
2026-05-05 02:06 -34.43685 150.07663 25528 ft 315 kts 258°
2026-05-05 02:07 -34.43873 150.05058 25109 ft 312 kts 277°
2026-05-05 02:07 -34.43228 150.02513 24271 ft 327 kts 296°
2026-05-05 02:07 -34.41777 150.00288 23163 ft 351 kts 315°
2026-05-05 02:07 -34.39651 149.98682 22046 ft 372 kts 333°
2026-05-05 02:08 -34.37081 149.97886 20930 ft 392 kts 349°
2026-05-05 02:08 -34.34292 149.97997 19880 ft 411 kts
2026-05-05 02:08 -34.31556 149.99059 19196 ft 417 kts 22°
2026-05-05 02:08 -34.29125 150.00963 18593 ft 420 kts 37°
2026-05-05 02:09 -34.27168 150.03580 17874 ft 423 kts 53°
2026-05-05 02:09 -34.25863 150.06737 17382 ft 418 kts 70°
2026-05-05 02:09 -34.25346 150.10136 17113 ft 407 kts 88°
2026-05-05 02:09 -34.25626 150.13483 16862 ft 396 kts 103°
2026-05-05 02:10 -34.26308 150.16692 16612 ft 394 kts 106°
2026-05-05 02:10 -34.27063 150.19835 16362 ft 395 kts 107°
2026-05-05 02:10 -34.27845 150.23017 16107 ft 394 kts 107°
2026-05-05 02:10 -34.28626 150.26182 15849 ft 392 kts 107°
2026-05-05 02:11 -34.29404 150.29336 15604 ft 391 kts 107°
2026-05-05 02:11 -34.30065 150.32516 15352 ft 390 kts 98°
2026-05-05 02:11 -34.30111 150.35779 15121 ft 388 kts 82°
2026-05-05 02:11 -34.29512 150.38937 14885 ft 384 kts 70°
2026-05-05 02:12 -34.28519 150.41923 14642 ft 381 kts 63°
2026-05-05 02:12 -34.26094 150.47579 14086 ft 379 kts 58°
2026-05-05 02:12 -34.24827 150.50377 13554 ft 379 kts 58°
2026-05-05 02:13 -34.23565 150.53150 13028 ft 374 kts 58°
2026-05-05 02:13 -34.22327 150.55888 12555 ft 369 kts 58°
2026-05-05 02:13 -34.21113 150.58587 12066 ft 364 kts 59°
2026-05-05 02:13 -34.19912 150.61260 11565 ft 359 kts 59°
2026-05-05 02:14 -34.18728 150.63894 11115 ft 355 kts 60°
2026-05-05 02:14 -34.17560 150.66495 10656 ft 351 kts 60°
2026-05-05 02:14 -34.16429 150.69016 10527 ft 338 kts 60°
2026-05-05 02:14 -34.15317 150.71488 10403 ft 324 kts 60°
2026-05-05 02:15 -34.14273 150.73805 10288 ft 312 kts 60°
2026-05-05 02:15 -34.13239 150.76103 9960 ft 308 kts 59°
2026-05-05 02:15 -34.12230 150.78341 9619 ft 304 kts 59°
2026-05-05 02:15 -34.11228 150.80559 9329 ft 299 kts 59°
2026-05-05 02:16 -34.10239 150.82748 9041 ft 295 kts 59°
2026-05-05 02:16 -34.09263 150.84910 8735 ft 295 kts 59°
2026-05-05 02:16 -34.08269 150.87113 8435 ft 301 kts 60°
2026-05-05 02:16 -34.07264 150.89348 8114 ft 304 kts 60°
2026-05-05 02:17 -34.06263 150.91576 7802 ft 302 kts 60°
2026-05-05 02:17 -34.05262 150.93799 7476 ft 301 kts 60°
2026-05-05 02:17 -34.04268 150.96003 7181 ft 298 kts 60°
2026-05-05 02:17 -34.03343 150.98221 6880 ft 296 kts 71°
2026-05-05 02:18 -34.03093 151.00652 6579 ft 292 kts 97°
2026-05-05 02:18 -34.03713 151.02947 6291 ft 288 kts 124°
2026-05-05 02:18 -34.04985 151.04736 6116 ft 275 kts 140°
2026-05-05 02:18 -34.06393 151.06227 6014 ft 263 kts 141°
2026-05-05 02:19 -34.07823 151.07491 5922 ft 248 kts 155°
2026-05-05 02:19 -34.09399 151.08192 5749 ft 238 kts 171°
2026-05-05 02:19 -34.11001 151.08517 5579 ft 231 kts 174°
2026-05-05 02:19 -34.12560 151.08884 5321 ft 231 kts 172°
2026-05-05 02:20 -34.14130 151.09293 5071 ft 229 kts 171°
2026-05-05 02:20 -34.15679 151.09705 4870 ft 226 kts 171°
2026-05-05 02:20 -34.17213 151.10112 4591 ft 226 kts 172°
2026-05-05 02:20 -34.18750 151.10513 4307 ft 226 kts 172°
2026-05-05 02:21 -34.20298 151.10919 3914 ft 229 kts 172°
2026-05-05 02:21 -34.21851 151.11333 3548 ft 228 kts 172°
2026-05-05 02:21 -34.23347 151.12005 3187 ft 237 kts 149°
2026-05-05 02:21 -34.24405 151.13538 3000 ft 243 kts 117°
2026-05-05 02:22 -34.24671 151.15547 2985 ft 246 kts 86°
2026-05-05 02:22 -34.24388 151.17564 2960 ft 238 kts 82°
2026-05-05 02:22 -34.24090 151.19481 2970 ft 226 kts 82°
2026-05-05 02:22 -34.23809 151.21305 2969 ft 217 kts 82°
2026-05-05 02:23 -34.23374 151.23024 2987 ft 215 kts 57°
2026-05-05 02:23 -34.22216 151.24112 2985 ft 213 kts 14°
2026-05-05 02:23 -34.20759 151.24299 2973 ft 211 kts 352°
2026-05-05 02:23 -34.19331 151.24053 2967 ft 205 kts 343°
2026-05-05 02:24 -34.17934 151.23679 2968 ft 205 kts 342°
2026-05-05 02:24 -34.16551 151.23318 2964 ft 207 kts 342°
2026-05-05 02:24 -34.15146 151.22951 2982 ft 206 kts 342°
2026-05-05 02:24 -34.13750 151.22586 2981 ft 205 kts 343°
2026-05-05 02:25 -34.12391 151.22234 2979 ft 192 kts 342°
2026-05-05 02:25 -34.11114 151.21898 2958 ft 186 kts 342°
2026-05-05 02:25 -34.09869 151.21574 2742 ft 180 kts 342°
2026-05-05 02:25 -34.08659 151.21255 2494 ft 176 kts 342°
2026-05-05 02:26 -34.07471 151.20948 2252 ft 175 kts 343°
2026-05-05 02:26 -34.06296 151.20640 2036 ft 165 kts 343°
2026-05-05 02:26 -34.05222 151.20364 1808 ft 153 kts 344°
2026-05-05 02:26 -34.04190 151.20086 1617 ft 150 kts 343°
2026-05-05 02:27 -34.03174 151.19824 1405 ft 147 kts 343°
2026-05-05 02:27 -34.02191 151.19545 1217 ft 144 kts 342°
2026-05-05 02:27 -34.01226 151.19309 1023 ft 139 kts 346°
2026-05-05 02:27 -34.00254 151.19103 835 ft 141 kts 342°
2026-05-05 02:28 -33.99300 151.18848 633 ft 142 kts 342°
2026-05-05 02:28 -33.98369 151.18609 424 ft 131 kts 341°
2026-05-05 02:28 -33.97447 151.18374 295 ft 138 kts 341°
2026-05-05 02:28 -33.96534 151.18103 102 ft 136 kts 342°
2026-05-05 02:29 -33.95667 151.17863 34 ft 108 kts 347°
2026-05-05 02:29 -33.95063 151.17707 32 ft 73 kts 347°
2026-05-05 02:29 -33.94740 151.17624 34 ft 35 kts 347°
2026-05-05 02:29 -33.94544 151.17547 35 ft 26 kts 334°
2026-05-05 02:30 -33.94405 151.17442 35 ft 22 kts 318°
2026-05-05 02:30 -33.94324 151.17354 35 ft 11 kts 317°
2026-05-05 02:30 -33.94294 151.17323 35 ft 0 kts 326°
2026-05-05 02:32 -33.94286 151.17317 35 ft 4 kts 329°
2026-05-05 02:32 -33.94246 151.17297 34 ft 8 kts 345°
2026-05-05 02:32 -33.94175 151.17277 33 ft 12 kts 347°
2026-05-05 02:32 -33.94084 151.17253 34 ft 14 kts 348°
2026-05-05 02:33 -33.94005 151.17230 34 ft 10 kts 329°
2026-05-05 02:33 -33.93981 151.17164 34 ft 8 kts 258°
2026-05-05 02:33 -33.93999 151.17098 35 ft 6 kts 252°
2026-05-05 02:33 -33.94001 151.17093 35 ft 0 kts 252°
2026-05-05 02:34 -33.94001 151.17092 35 ft 1 kts 252°
2026-05-05 02:34 -33.94014 151.17043 35 ft 8 kts 253°
2026-05-05 02:34 -33.94030 151.16974 35 ft 5 kts 254°
2026-05-05 02:34 -33.94031 151.16972 35 ft 0 kts 254°
2026-05-05 02:35 -33.94035 151.16956 35 ft 3 kts 254°
2026-05-05 02:35 -33.94037 151.16945 35 ft 0 kts 254°
2026-05-05 02:35 -33.94038 151.16943 35 ft 1 kts 254°
2026-05-05 02:35 -33.94044 151.16917 35 ft 5 kts 254°
2026-05-05 02:36 -33.94055 151.16867 35 ft 7 kts 257°
2026-05-05 02:36 -33.94048 151.16811 35 ft 7 kts 302°
2026-05-05 02:36 -33.94017 151.16752 35 ft 9 kts 303°
2026-05-05 02:36 -33.93993 151.16709 35 ft 3 kts 303°
2026-05-05 02:37 -33.93985 151.16693 35 ft 0 kts 304°
2026-05-05 02:37 -33.93983 151.16691 35 ft 0 kts 304°
2026-05-05 02:37 -33.93982 151.16689 35 ft 0 kts 304°
2026-05-05 02:37 -33.93982 151.16688 35 ft 0 kts 304°